ISS (ZARYA) 1 25544U 98067A 25346.86355306 .00014033 00000+0 25741-3 0 9998 2 25544 51.6304 141.8664 0003245 240.6311 119.4354 15.49550036542873 CSS (TIANHE) 1 48274U 21035A 25346.97088639 .00026417 00000+0 33033-3 0 9990 2 48274 41.4684 15.3046 0008245 32.5257 327.6088 15.59178060264217 ISS (NAUKA) 1 49044U 21066A 25346.86355306 .00014033 00000+0 25741-3 0 9994 2 49044 51.6304 141.8664 0003245 240.6311 119.4354 15.49550036230441 FREGAT DEB 1 49271U 11037PF 25346.00430780 .00005011 00000+0 11363-1 0 9998 2 49271 51.6357 201.6036 0863879 222.0892 131.0409 12.34426205201848 CSS (WENTIAN) 1 53239U 22085A 25346.97088639 .00026417 00000+0 33033-3 0 9993 2 53239 41.4684 15.3046 0008245 32.5257 327.6088 15.59178060173842 CSS (MENGTIAN) 1 54216U 22143A 25346.97088639 .00026417 00000+0 33033-3 0 9994 2 54216 41.4684 15.3046 0008245 32.5257 327.6088 15.59178060158649 SHENZHOU-20 (SZ-20) 1 63632U 25082A 25346.97088639 .00026417 00000+0 33033-3 0 9991 2 63632 41.4684 15.3046 0008245 32.5257 327.6088 15.59178060255302 PROGRESS-MS 31 1 64751U 25146A 25346.86355306 .00014033 00000+0 25741-3 0 9999 2 64751 51.6304 141.8664 0003245 240.6311 119.4354 15.49550036 6758 TIANZHOU-9 1 64786U 25149A 25346.97088639 .00026417 00000+0 33033-3 0 9996 2 64786 41.4684 15.3046 0008245 32.5257 327.6088 15.59178060255303 CREW DRAGON 11 1 65077U 25166A 25346.86355306 .00014033 00000+0 25741-3 0 9993 2 65077 51.6304 141.8664 0003245 240.6311 119.4354 15.49550036 2149 DRAGON CRS-33 1 65304U 25186A 25346.86355306 .00014033 00000+0 25741-3 0 9998 2 65304 51.6304 141.8664 0003245 240.6311 119.4354 15.49550036 117 PROGRESS-MS 32 1 65586U 25204A 25346.86355306 .00014033 00000+0 25741-3 0 9991 2 65586 51.6304 141.8664 0003245 240.6311 119.4354 15.49550036 276 CYGNUS NG-23 1 65616U 25208A 25346.86355306 .00014033 00000+0 25741-3 0 9999 2 65616 51.6304 141.8664 0003245 240.6311 119.4354 15.49550036 225 DRAGONFLY 1 65729U 98067XH 25346.67493080 .00219639 00000+0 16127-2 0 9994 2 65729 51.6248 136.0967 0006787 276.9077 83.1148 15.71879709 13154 1998-067XK 1 65731U 98067XK 25346.67040746 .00121277 00000+0 11639-2 0 9997 2 65731 51.6278 137.5837 0005064 245.5943 114.4524 15.65714670 13135 RSP-03 1 65732U 98067XL 25346.80283155 .00161855 00000+0 13718-2 0 9992 2 65732 51.6253 136.2083 0005762 249.7501 110.2876 15.68628297 13179 GHS-01 1 65733U 98067XM 25346.69021224 .00264493 00000+0 17047-2 0 9998 2 65733 51.6272 135.4559 0007160 280.4692 79.5500 15.74787819 13171 YOTSUBA-KULOVER 1 65941U 98067XN 25346.71267083 .00088324 00000+0 10887-2 0 9999 2 65941 51.6283 140.1144 0001436 251.0528 109.0310 15.59446006 9850 BOTAN 1 65942U 98067XP 25346.84619684 .00139962 00000+0 14970-2 0 9994 2 65942 51.6286 138.7562 0003106 238.0921 121.9771 15.62906067 9888 E-KAGAKU-1 1 65943U 98067XQ 25344.27717868 .00100705 00000+0 12589-2 0 9990 2 65943 51.6298 152.3458 0005250 191.2269 168.8608 15.59004320 9476 HRC MONOBLOCK CAMERA 1 66052U 98067XR 25346.97268030 .00050598 00000+0 76587-3 0 9996 2 66052 51.6292 140.3460 0003311 185.3719 174.7237 15.54154982 8874 HTV-X1 1 66174U 25241A 25346.86355306 .00014033 00000+0 25741-3 0 9996 2 66174 51.6304 141.8664 0003245 240.6311 119.4354 15.49550036 517 SZ-21 MODULE 1 66515U 25246C 25346.79490263 .00032837 00000+0 36065-3 0 9997 2 66515 41.4775 15.7097 0006306 260.6775 99.3351 15.62483203 4457 SHENZHOU-22 1 66645U 25272A 25346.97088639 .00026417 00000+0 33033-3 0 9999 2 66645 41.4684 15.3046 0008245 32.5257 327.6088 15.59178060263577 SOYUZ-MS 28 1 66664U 25275A 25346.86355306 .00014033 00000+0 25741-3 0 9997 2 66664 51.6304 141.8664 0003245 240.6311 119.4354 15.49550036 1286 1998-067XS 1 66906U 98067XS 25346.72929150 .00036816 00000+0 63717-3 0 9992 2 66906 51.6293 142.4703 0003602 202.1444 157.9390 15.50562979 1615 1998-067XT 1 66907U 98067XT 25346.72657438 .00084420 00000+0 13979-2 0 9998 2 66907 51.6298 142.4529 0004476 226.7870 133.2746 15.51436780 1615 1998-067XU 1 66908U 98067XU 25346.91947377 .00093943 00000+0 15462-2 0 9993 2 66908 51.6297 141.4904 0004575 226.4160 133.6450 15.51556229 1640 SILVERSAT 1 66909U 98067XV 25346.91909407 .00094974 00000+0 15570-2 0 9991 2 66909 51.6297 141.4878 0004449 228.6613 131.3994 15.51661311 1645 1998-067XW 1 66910U 98067XW 25346.85318993 .00081487 00000+0 13339-2 0 9996 2 66910 51.6298 141.7982 0005252 209.4111 150.6584 15.51770354 1636 1998-067XX 1 66911U 98067XX 25346.72367662 .00096916 00000+0 15692-2 0 9997 2 66911 51.6296 142.4333 0004979 210.3883 149.6819 15.51996459 1607 1998-067XY 1 66912U 98067XY 25346.72752968 .00067169 00000+0 11286-2 0 9998 2 66912 51.6300 142.4585 0004576 223.4610 136.6019 15.51126460 1604